THOR ABLESTAR DEB, 1425

Orbit data source: Space-Track

THOR ABLESTAR DEB, 1425 is space debris in LEO originally from a launch on Thu, 24 Jun 1965 UTC launched from the Air Force Western Test Range (AFWTR). Debris objects in space refer to the collection of defunct objects orbiting the Earth. Examples of debris include non-operational satellites, rocket bodies, and fragments generated from explosions, collisions, or faulty payload assembly.

Loading next visibility...
Identifier
1425, 1965-048C
Orbit
LEO
Country
Flag of USUS
Related business
Manufacturer
APL
Mission
Spacecraft
Bus & Motor
Unknown
Mass
Unknown
Launch date (UTC)
1965-06-24 (61 years ago)
Launch vehicle
Unknown
Launch site
Air Force Western Test Range (AFWTR)
Object type
Payload
Rocket body
Debris
Shape & HBR
Unknown shape, 0.4 m
Radar Cross Section
Medium (>0.1 m² and <1 m²)

Expand to show TLE details & history
Last TLE update: 2 days ago

TLE from 2 days ago
0 THOR ABLESTAR DEB
1 01425U 65048C   26134.40592205  .00000031  00000-0  34991-4 0  9992
2 01425  89.8748 285.3257 0072516 323.9944  88.3095 13.48946141995877
Epoch: 2026-05-14T09:44Z
TLE epoch observation values (Epoch: 2026-05-14T09:44:31.665Z)
Latitude
53.22873°
Longitude
-92.79162°
Altitude
1,083.708 km
Speed
7.316 km/s
True Right ascension
19h 01m 58s
True Declination
53° 04' 15"
Sunlit
Object was in daylight at epoch
Visualization orbit readout
Latitude
Unknown
Longitude
Unknown
Altitude
Unknown
Speed
Unknown
Apparent Right ascension
Unknown
Apparent Declination
Unknown
Sunlit
N/A
Visualization observer readout
Local Sidereal Time
17:24:44
Azimuth
Unknown
Elevation
Unknown
Doppler factor
Unknown
Orbital elements
Apogee altitude
1,127.224 km
Perigee altitude
1,019.156 km
Semi-major axis
7,451.327 km
Eccentricity
0.00725
Inclination
89.8748°
RAAN
285.3257°
Arg. of periapsis
323.9944°
True anomaly
89.1403°
Mean anomaly
88.3095°
Eccentric anomaly
88.72488°
Mean motion
3.37437 °/min
Orbital period
106.69 mins
BSTAR
0.000034991
Loading maneuver chart data...
Computing Atmospheric mass density...

Documentation

Showing up to 5 results
|